Location: Balagbag Mahabang Kahoy
(14.1562°N, 120.9200°E)
Time: 04:38:13
(UTC+00:00)

Centaur AC-112 - Pass Details

Date: 16 January 2026
Orbit: 277 x 17986 km, 26.7° (Epoch: 15 February)

Event Time Altitude Azimuth Distance (km) Brightness Sun altitude
Exits shadow 19:36:27 55° 72° (ENE) 1,548 4.5 -39.6°
Drops below altitude 10° 19:52:47 10° 108° (ESE) 7,880 8.9 -35.8°
Sets 20:07:15 0° 111° (ESE) 12,349 10.3 -32.4°
